アタール-モーリー彗星

C/2022 N1 ( Attard-Maury )

English version
Home page
Updated on September 29, 2022

---------------------------------------------------------------------

・ プロフィール

発見日 2022年7月2日
発見光度 17.2等
発見者 Georges Attard and Alain Maury (San Pedro de Atacama, Chile)

・ 写真集

・ 軌道要素

Epoch 2022 Aug. 9.0 TT = JDT 2459800.5
T 2022 Sept. 10.05093 TT                                Rudenko
q   1.4818053            (2000.0)            P               Q
z  +0.0270447      Peri.   41.07234     -0.14045347     -0.96452215
 +/-0.0000211      Node   301.85807     -0.96320849     +0.08086109
e   0.9599251      Incl.  164.74080     -0.22913366     +0.25131356
From 217 observations 2022 June 29-Aug. 27, mean residual 0".7.

・ 星図

・ 光度変化

        m1 = 15.5 + 5 logΔ + 10.0 log r

---------------------------------------------------------------------

軌道要素はM.P.E.C. 2022-R68に掲載されたものです。
星図はステラナビゲータ Ver.10 (アストロアーツ) で作成したものです。
光度グラフはComet for Windowsで作成したものです。

---------------------------------------------------------------------

Copyright(C) Seiichi Yoshida (comet@aerith.net). All rights reserved.